GW5390 Weather Reports


time (UTC)temp
F
wind
direction
speed
knots
gust
knots
rain 1hr
in
rain 24hr
in
rain mn
in
humidity
%
barometer
mb
20260508050401 74 134 0.0 0.9 0.00 0.00 0.00 94 1006.4
20260508045857 74 218 0.9 0.9 0.00 0.00 0.00 94 1006.3
20260508045355 74 180 0.0 0.9 0.00 0.00 0.00 94 1006.3
20260508044852 73 191 0.0 0.0 0.00 0.00 0.00 94 1006.2
20260508044348 74 167 0.0 0.0 0.00 0.00 0.00 94 1006.3
20260508043844 74 193 0.0 0.0 0.00 0.00 0.00 94 1006.2
20260508043342 73 166 0.0 0.9 0.00 0.00 0.00 93 1006.1
20260508042838 74 184 0.0 0.0 0.00 0.00 0.00 93 1006.5
20260508042336 74 164 0.9 0.9 0.00 0.00 0.00 93 1006.3
20260508041833 74 185 0.0 0.9 0.00 0.00 0.00 93 1006.4
20260508041329 74 192 0.0 0.0 0.00 0.00 0.00 93 1006.5
20260508040826 74 186 0.0 0.9 0.00 0.00 0.00 93 1006.5
20260508040323 74 207 0.9 2.6 0.00 0.00 0.00 93 1006.6
20260508035820 74 188 0.0 0.9 0.00 0.00 0.00 93 1006.7
20260508035318 74 182 0.0 0.9 0.00 0.00 0.00 93 1006.6
20260508034814 74 125 0.9 1.7 0.00 0.00 0.00 93 1006.8
20260508034312 74 218 0.9 0.9 0.00 0.00 0.00 93 1006.6
20260508033808 74 111 3.5 3.5 0.00 0.00 0.00 93 1006.9
20260508033307 73 185 0.0 0.0 0.00 0.00 0.00 92 1007.0
20260508032804 73 198 0.0 0.0 0.00 0.00 0.00 92 1006.9
20260508032301 74 184 0.0 0.0 0.00 0.00 0.00 92 1007.3
20260508031758 74 173 0.0 0.0 0.00 0.00 0.00 92 1007.2
20260508031254 74 213 0.0 0.0 0.00 0.00 0.00 92 1007.0
20260508030751 74 184 0.0 0.9 0.00 0.00 0.00 92 1007.2
20260508030248 74 184 0.0 0.0 0.00 0.00 0.00 92 1007.2
20260508025744 74 169 0.0 0.0 0.00 0.00 0.00 91 1007.3
20260508025241 74 190 0.0 0.9 0.00 0.00 0.00 92 1007.3
20260508024738 74 187 0.0 0.0 0.00 0.00 0.00 92 1007.4
20260508024235 74 306 2.6 2.6 0.00 0.00 0.00 92 1007.3
20260508023732 74 49 0.9 1.7 0.00 0.00 0.00 92 1007.5
20260508023229 74 166 0.0 0.0 0.00 0.00 0.00 92 1007.5
20260508022724 74 194 0.0 0.9 0.00 0.00 0.00 92 1007.5
20260508022221 74 143 0.9 0.9 0.00 0.00 0.00 92 1007.5
20260508021718 74 195 0.9 0.9 0.00 0.00 0.00 92 1007.3
20260508021214 74 118 0.9 1.7 0.00 0.00 0.00 92 1007.6
20260508020711 74 159 0.0 0.9 0.00 0.00 0.00 92 1007.6
20260508020208 74 213 0.9 0.9 0.00 0.00 0.00 92 1007.5
20260508015706 74 180 0.0 0.0 0.00 0.00 0.00 92 1007.6
20260508015202 74 198 0.0 0.9 0.00 0.00 0.00 92 1007.7
20260508014659 74 204 0.9 0.9 0.00 0.00 0.00 92 1007.7
20260508014155 74 177 0.0 0.0 0.00 0.00 0.00 92 1007.6
20260508013652 74 160 0.0 0.0 0.00 0.00 0.00 92 1007.6
20260508013148 74 203 0.9 1.7 0.00 0.00 0.00 92 1007.5
20260508012646 74 182 0.0 0.0 0.00 0.00 0.00 93 1007.4
20260508012143 74 234 2.6 2.6 0.00 0.00 0.00 93 1007.4
20260508011641 74 245 1.7 2.6 0.00 0.00 0.00 93 1007.5
20260508011138 74 183 0.9 0.9 0.00 0.00 0.00 92 1007.2
20260508010635 74 185 2.6 2.6 0.00 0.00 0.00 92 1007.4
20260508010133 74 155 1.7 2.6 0.00 0.00 0.00 93 1007.7
20260508005630 74 198 0.9 0.9 0.00 0.00 0.00 93 1007.5
20260508005126 74 184 0.9 1.7 0.00 0.00 0.00 92 1007.9
20260508004621 74 194 0.9 1.7 0.00 0.00 0.00 92 1007.9
20260508004119 74 212 3.5 3.5 0.00 0.00 0.00 93 1007.8
20260508003615 74 225 0.9 0.9 0.00 0.00 0.00 92 1007.8
20260508003113 74 191 0.9 1.7 0.00 0.00 0.00 92 1007.9
20260508002609 74 305 1.7 2.6 0.00 0.00 0.00 92 1007.9
20260508002107 74 197 1.7 1.7 0.00 0.00 0.00 92 1007.9
20260508001602 74 195 0.9 0.9 0.00 0.00 0.00 92 1007.9
20260508001058 75 192 0.0 0.0 0.00 0.00 0.00 92 1008.1
20260508000554 75 183 2.6 2.6 0.00 0.00 0.00 92 1008.0
20260508000052 75 161 3.5 5.2 0.00 0.00 0.00 92 1008.0
20260507235548 75 200 1.7 1.7 0.00 0.00 0.00 92 1008.1
20260507235046 75 189 0.9 0.9 0.00 0.00 0.00 92 1008.2
20260507234542 75 187 0.0 0.0 0.00 0.00 0.00 92 1007.9
20260507234038 74 192 1.7 1.7 0.00 0.00 0.00 92 1007.9
20260507233535 74 207 0.9 0.9 0.00 0.00 0.00 92 1008.0
20260507233034 74 199 0.0 0.9 0.00 0.00 0.00 92 1008.1
20260507232530 74 202 0.9 1.7 0.00 0.00 0.00 91 1007.9
20260507232027 74 189 0.9 0.9 0.00 0.00 0.00 91 1007.8
20260507231524 74 164 0.9 0.9 0.00 0.00 0.00 91 1007.8
20260507231021 75 197 1.7 1.7 0.00 0.00 0.00 91 1007.8
20260507230518 75 195 1.7 1.7 0.00 0.00 0.00 91 1008.0
20260507230014 75 202 0.0 0.0 0.00 0.00 0.00 91 1007.9
20260507225510 75 254 1.7 2.6 0.00 0.00 0.00 91 1008.0
20260507225006 75 178 0.0 0.9 0.00 0.00 0.00 91 1007.8
20260507224502 75 175 0.0 0.9 0.00 0.00 0.00 91 1007.9
20260507223958 75 200 0.9 0.9 0.00 0.00 0.00 91 1008.2
20260507223454 75 167 1.7 2.6 0.00 0.00 0.00 91 1007.9
20260507222952 75 190 0.0 0.9 0.00 0.00 0.00 91 1008.1
20260507222448 75 202 0.9 0.9 0.00 0.00 0.00 91 1007.9
20260507221945 75 157 1.7 2.6 0.00 0.00 0.00 91 1008.1
20260507221442 75 158 1.7 2.6 0.00 0.00 0.00 91 1007.8
20260507220938 74 178 0.0 0.0 0.00 0.00 0.00 91 1007.7
20260507220436 75 195 0.0 0.9 0.00 0.00 0.00 91 1007.5
20260507215932 74 170 3.5 5.2 0.00 0.00 0.00 91 1007.8
20260507215429 74 202 0.0 0.0 0.00 0.00 0.00 90 1007.7
20260507214926 74 211 2.6 3.5 0.00 0.00 0.00 91 1007.5
20260507214424 74 173 0.0 0.0 0.00 0.00 0.00 90 1007.4
20260507213919 74 194 2.6 2.6 0.00 0.00 0.00 90 1007.5
20260507213416 74 200 1.7 2.6 0.00 0.00 0.00 90 1007.5
20260507212913 74 181 1.7 5.2 0.00 0.00 0.00 91 1007.6
20260507212409 74 186 0.9 1.7 0.00 0.00 0.00 91 1007.5
20260507211906 74 205 0.0 0.9 0.00 0.00 0.00 91 1007.2
20260507211402 74 211 0.9 1.7 0.00 0.00 0.00 91 1007.2
20260507210859 74 190 2.6 2.6 0.00 0.00 0.00 91 1007.3
20260507210356 74 204 3.5 3.5 0.00 0.00 0.00 91 1007.4
20260507205852 74 203 1.7 1.7 0.00 0.00 0.00 91 1007.2
20260507205349 74 191 0.0 0.9 0.00 0.00 0.00 90 1007.2
20260507204846 74 204 2.6 3.5 0.00 0.00 0.00 90 1007.3
20260507204343 74 175 1.7 2.6 0.00 0.00 0.00 90 1007.2
20260507203841 74 191 1.7 1.7 0.00 0.00 0.00 90 1007.1
20260507203338 74 225 3.5 3.5 0.00 0.00 0.00 90 1007.1
20260507202834 74 183 3.5 3.5 0.00 0.00 0.00 90 1007.1
20260507202331 74 176 0.9 0.9 0.00 0.00 0.00 90 1007.1
20260507201826 74 182 1.7 1.7 0.00 0.00 0.00 90 1007.3
20260507201322 74 196 2.6 2.6 0.00 0.00 0.00 89 1007.0
20260507200819 74 169 0.9 0.9 0.00 0.00 0.00 89 1007.1
20260507200315 74 183 0.0 0.9 0.00 0.00 0.00 89 1007.2
20260507195811 74 196 0.9 1.7 0.00 0.00 0.00 89 1007.0
20260507195308 74 197 1.7 2.6 0.00 0.00 0.00 89 1007.0
20260507194806 74 208 4.3 6.1 0.00 0.00 0.00 89 1007.0
20260507194302 74 194 1.7 2.6 0.00 0.00 0.00 89 1007.1
20260507193758 74 185 2.6 3.5 0.00 0.00 0.00 89 1007.4
20260507193255 74 163 2.6 3.5 0.00 0.00 0.00 89 1007.3
20260507192751 74 182 1.7 2.6 0.00 0.00 0.00 88 1007.2
20260507192248 75 158 4.3 7.0 0.00 0.00 0.00 88 1007.4
20260507191744 75 214 2.6 3.5 0.00 0.00 0.00 88 1007.6
20260507191241 75 222 0.9 0.9 0.00 0.00 0.00 88 1007.4
20260507190738 75 184 3.5 5.2 0.00 0.00 0.00 88 1007.4
20260507190236 75 124 2.6 2.6 0.00 0.00 0.00 87 1007.4
20260507185735 75 166 3.5 3.5 0.00 0.00 0.00 87 1007.3
20260507185231 75 180 4.3 6.1 0.00 0.00 0.00 87 1007.3
20260507184729 75 192 3.5 5.2 0.00 0.00 0.00 87 1007.5
20260507184227 75 208 2.6 2.6 0.00 0.00 0.00 87 1007.5
20260507183723 75 138 3.5 3.5 0.00 0.00 0.00 86 1007.6
20260507183220 75 198 3.5 3.5 0.00 0.00 0.00 86 1007.4
20260507182717 75 182 2.6 2.6 0.00 0.00 0.00 86 1007.7
20260507182212 75 159 4.3 6.1 0.00 0.00 0.00 85 1007.9
20260507181709 75 175 1.7 1.7 0.00 0.00 0.00 85 1007.6
20260507181206 75 201 3.5 3.5 0.00 0.00 0.00 85 1007.7
20260507180702 76 209 1.7 2.6 0.00 0.00 0.00 84 1007.5
20260507180159 76 181 3.5 5.2 0.00 0.00 0.00 84 1007.8
20260507175655 76 238 4.3 5.2 0.00 0.00 0.00 84 1007.8
20260507175152 76 219 1.7 1.7 0.00 0.00 0.00 84 1007.9
20260507174649 76 190 2.6 3.5 0.00 0.00 0.00 84 1007.8
20260507174148 76 174 4.3 6.1 0.00 0.00 0.00 83 1007.9
20260507173644 76 137 5.2 7.8 0.00 0.00 0.00 83 1007.9
20260507173141 76 170 2.6 2.6 0.00 0.00 0.00 83 1008.0
20260507172637 76 194 4.3 5.2 0.00 0.00 0.00 83 1008.1
20260507172135 76 125 4.3 6.1 0.00 0.00 0.00 82 1008.2
20260507171629 76 155 1.7 5.2 0.00 0.00 0.00 82 1008.0
20260507171127 76 152 5.2 7.8 0.00 0.00 0.00 82 1007.9
20260507170624 76 185 1.7 1.7 0.00 0.00 0.00 81 1008.1
20260507170121 77 168 3.5 6.1 0.00 0.00 0.00 80 1008.2
20260507165616 77 202 3.5 5.2 0.00 0.00 0.00 80 1008.2
20260507165113 77 199 4.3 6.1 0.00 0.00 0.00 81 1008.3
20260507164609 77 274 2.6 5.2 0.00 0.00 0.00 80 1008.4
20260507164106 78 228 3.5 3.5 0.00 0.00 0.00 81 1008.5
20260507163604 78 200 0.9 1.7 0.00 0.00 0.00 80 1008.7
20260507163102 78 176 3.5 5.2 0.00 0.00 0.00 81 1008.9
20260507162601 78 157 4.3 5.2 0.00 0.00 0.00 82 1008.9
20260507162059 78 194 2.6 2.6 0.00 0.00 0.00 82 1009.1
20260507161555 77 196 0.9 2.6 0.00 0.00 0.00 82 1009.2
20260507161051 77 179 2.6 2.6 0.00 0.00 0.00 82 1009.3
20260507160548 77 216 0.9 1.7 0.00 0.00 0.00 81 1009.5
20260507160044 77 188 0.9 1.7 0.00 0.00 0.00 81 1009.5
20260507155539 78 216 2.6 5.2 0.00 0.00 0.00 80 1009.5
20260507155037 78 194 5.2 8.7 0.00 0.00 0.00 80 1009.7
20260507154534 78 194 3.5 3.5 0.00 0.00 0.00 80 1009.8
20260507154031 78 150 5.2 6.1 0.00 0.00 0.00 80 1009.8
20260507153528 79 176 6.1 7.8 0.00 0.00 0.00 80 1009.9
20260507153024 78 197 2.6 2.6 0.00 0.00 0.00 81 1010.0
20260507152519 78 182 3.5 3.5 0.00 0.00 0.00 82 1010.1
20260507152016 78 203 1.7 2.6 0.00 0.00 0.00 82 1010.5
20260507151513 78 201 1.7 2.6 0.00 0.00 0.00 83 1010.4
20260507151010 77 222 5.2 7.0 0.00 0.00 0.00 83 1010.6
20260507150506 77 224 3.5 5.2 0.00 0.00 0.00 85 1010.8
20260507150003 76 203 1.7 2.6 0.00 0.00 0.00 85 1010.9
20260507145458 76 189 0.9 1.7 0.00 0.00 0.00 86 1010.9
20260507144955 75 191 0.0 0.0 0.00 0.00 0.00 86 1011.2
20260507144452 75 179 3.5 6.1 0.00 0.00 0.00 86 1011.2
20260507143949 75 212 0.0 0.0 0.00 0.00 0.00 86 1011.4
20260507143447 75 190 0.0 0.9 0.00 0.00 0.00 86 1011.6
20260507142943 75 192 0.9 1.7 0.00 0.00 0.00 86 1011.5
20260507142439 75 184 1.7 1.7 0.00 0.00 0.00 86 1011.8
20260507141937 76 159 2.6 2.6 0.00 0.00 0.00 85 1011.7
20260507141432 76 191 0.9 0.9 0.00 0.00 0.00 85 1011.9
20260507140929 76 183 3.5 5.2 0.00 0.00 0.00 85 1012.0
20260507140426 76 165 0.9 0.9 0.00 0.00 0.00 85 1012.0
20260507135924 76 186 0.9 1.7 0.00 0.00 0.00 85 1012.2
20260507135420 76 208 2.6 2.6 0.00 0.00 0.00 85 1012.0
20260507134918 76 182 4.3 5.2 0.00 0.00 0.00 84 1012.3
20260507134414 77 154 3.5 5.2 0.00 0.00 0.00 84 1012.4
20260507133910 76 166 0.9 1.7 0.00 0.00 0.00 85 1012.4
20260507133406 76 191 3.5 5.2 0.00 0.00 0.00 84 1012.5
20260507132905 76 217 1.7 2.6 0.00 0.00 0.00 84 1012.7
20260507132400 77 197 3.5 5.2 0.00 0.00 0.00 84 1012.6
20260507131858 76 187 0.9 0.9 0.00 0.00 0.00 85 1012.8
20260507131354 75 187 0.9 0.9 0.00 0.00 0.00 86 1013.0
20260507130851 75 184 0.9 0.9 0.00 0.00 0.00 86 1013.0
20260507130348 75 206 2.6 3.5 0.00 0.00 0.00 86 1013.2
20260507125847 76 205 1.7 1.7 0.00 0.00 0.00 86 1012.9
20260507125344 76 146 1.7 1.7 0.00 0.00 0.00 86 1012.9
20260507124842 76 216 2.6 3.5 0.00 0.00 0.00 86 1013.0
20260507124338 76 193 5.2 6.1 0.00 0.00 0.00 87 1013.3
20260507123837 76 218 2.6 3.5 0.00 0.00 0.00 88 1013.2
20260507123333 76 163 2.6 3.5 0.00 0.00 0.00 88 1013.1
20260507122830 75 211 1.7 1.7 0.00 0.00 0.00 88 1013.2
20260507122325 75 199 1.7 1.7 0.00 0.00 0.00 89 1013.2
20260507121822 75 199 1.7 2.6 0.00 0.00 0.00 89 1013.3
20260507121317 75 206 3.5 3.5 0.00 0.00 0.00 89 1013.3
20260507120814 75 190 1.7 1.7 0.00 0.00 0.00 90 1013.4
20260507120310 75 194 0.9 0.9 0.00 0.00 0.00 90 1013.3
20260507115806 75 190 1.7 2.6 0.00 0.00 0.00 90 1013.3
20260507115306 75 213 1.7 1.7 0.00 0.00 0.00 90 1013.2
20260507114758 75 192 0.0 0.9 0.00 0.00 0.00 90 1013.3
20260507114256 75 199 3.5 3.5 0.00 0.00 0.00 90 1013.4
20260507113753 75 196 0.0 0.9 0.00 0.00 0.00 91 1013.4
20260507113249 74 185 1.7 2.6 0.00 0.00 0.00 91 1013.4
20260507112748 74 188 0.0 0.0 0.00 0.00 0.00 92 1013.5
20260507112244 73 170 0.9 1.7 0.00 0.00 0.00 92 1013.4
20260507111742 73 199 0.9 1.7 0.00 0.00 0.00 92 1013.7
20260507111238 74 207 1.7 1.7 0.00 0.00 0.00 92 1013.3
20260507110734 74 178 1.7 1.7 0.00 0.00 0.00 92 1013.2
20260507110231 73 195 0.9 0.9 0.00 0.00 0.00 93 1013.3
20260507105728 73 198 0.9 0.9 0.00 0.00 0.00 93 1013.2
20260507105224 73 193 0.0 0.0 0.00 0.00 0.00 93 1013.2
20260507104721 73 184 0.0 0.0 0.00 0.00 0.00 93 1013.3
20260507104218 73 183 0.0 0.0 0.00 0.00 0.00 93 1013.2
20260507103714 73 173 0.0 0.0 0.00 0.00 0.00 93 1013.2
20260507103210 73 176 0.0 0.0 0.00 0.00 0.00 93 1013.4
20260507102707 73 175 1.7 2.6 0.00 0.00 0.00 93 1013.2
20260507102203 73 181 0.0 0.0 0.00 0.00 0.00 94 1013.1
20260507101659 73 182 0.0 0.9 0.00 0.00 0.00 94 1013.1
20260507101155 73 185 0.0 0.0 0.00 0.00 0.00 94 1013.0
20260507100653 73 182 0.0 0.0 0.00 0.00 0.00 94 1013.3
20260507100151 73 188 0.9 1.7 0.00 0.00 0.00 94 1013.1
20260507095649 72 218 1.7 2.6 0.00 0.00 0.00 94 1013.1
20260507095145 72 112 0.9 0.9 0.00 0.00 0.00 94 1013.3
20260507094641 72 201 1.7 2.6 0.00 0.00 0.00 94 1013.3
20260507094138 73 179 0.9 2.6 0.00 0.00 0.00 94 1013.0
20260507093635 73 180 0.0 0.0 0.00 0.00 0.00 94 1013.0
20260507093134 73 186 0.0 0.0 0.00 0.00 0.00 94 1013.2
20260507092631 73 163 1.7 1.7 0.00 0.00 0.00 94 1013.2
20260507092127 73 205 2.6 2.6 0.00 0.00 0.00 94 1013.2
20260507091624 73 188 0.0 0.0 0.00 0.00 0.00 94 1013.1
20260507091119 73 192 0.0 0.0 0.00 0.00 0.00 94 1013.1
20260507090616 73 188 0.0 0.9 0.00 0.00 0.00 94 1013.1
20260507090113 73 189 1.7 1.7 0.00 0.00 0.00 94 1013.0
20260507085610 73 179 0.0 0.9 0.00 0.00 0.00 94 1013.0
20260507085106 73 196 0.0 0.0 0.00 0.00 0.00 94 1012.8
20260507084603 73 189 0.0 0.0 0.00 0.00 0.00 94 1012.9
20260507084100 73 191 0.9 0.9 0.00 0.00 0.00 94 1012.9
20260507083556 73 189 0.0 0.9 0.00 0.00 0.00 94 1012.8
20260507083054 73 178 0.9 0.9 0.00 0.00 0.00 94 1012.8
20260507082549 73 179 0.0 0.9 0.00 0.00 0.00 94 1012.8
20260507082046 73 190 0.0 0.9 0.00 0.00 0.00 94 1012.6
20260507081542 73 194 0.0 0.0 0.00 0.00 0.00 94 1012.6
20260507081040 73 195 0.9 0.9 0.00 0.00 0.00 94 1012.5
20260507080535 73 185 0.9 0.9 0.00 0.00 0.00 94 1012.4
20260507080032 73 173 1.7 1.7 0.00 0.00 0.00 94 1012.5
20260507075527 73 186 0.0 0.0 0.00 0.00 0.00 94 1012.5
20260507075024 73 186 0.9 0.9 0.00 0.00 0.00 94 1012.4
20260507074520 73 187 0.0 0.0 0.00 0.00 0.00 94 1012.7
20260507074019 73 189 1.7 1.7 0.00 0.00 0.00 94 1012.8
20260507073515 73 185 0.0 0.9 0.00 0.00 0.00 94 1012.8
20260507073012 73 186 1.7 1.7 0.00 0.00 0.00 94 1012.9
20260507072509 73 188 0.0 0.0 0.00 0.00 0.00 94 1012.9
20260507072006 73 194 0.9 1.7 0.00 0.00 0.00 94 1012.9
20260507071504 73 192 0.9 1.7 0.00 0.00 0.00 94 1013.0
20260507071000 73 193 0.0 0.9 0.00 0.00 0.00 94 1013.1
20260507070457 73 184 0.9 0.9 0.00 0.00 0.00 94 1013.0
20260507065954 73 194 1.7 2.6 0.00 0.00 0.00 94 1013.0
20260507065451 73 187 2.6 3.5 0.00 0.00 0.00 94 1013.1
20260507064948 73 189 0.9 0.9 0.00 0.00 0.00 94 1013.2
20260507064446 73 219 0.9 1.7 0.00 0.00 0.00 94 1013.2
20260507063943 73 211 1.7 1.7 0.00 0.00 0.00 94 1013.3
20260507063440 73 192 0.0 0.0 0.00 0.00 0.00 94 1013.3
20260507062937 73 199 2.6 3.5 0.00 0.00 0.00 94 1013.4
20260507062434 73 179 0.9 1.7 0.00 0.00 0.00 94 1013.5
20260507061932 73 154 1.7 1.7 0.00 0.00 0.00 94 1013.5
20260507061429 73 189 0.9 0.9 0.00 0.00 0.00 94 1013.7
20260507060928 73 188 0.0 0.0 0.00 0.00 0.00 94 1013.9
20260507060424 73 188 0.0 0.0 0.00 0.00 0.00 94 1013.7
20260507055921 73 151 0.9 0.9 0.00 0.00 0.00 94 1013.6
20260507055416 73 193 0.0 0.0 0.00 0.00 0.00 94 1014.0
20260507054914 73 178 0.0 0.9 0.00 0.00 0.00 94 1014.1
20260507054409 73 187 1.7 1.7 0.00 0.00 0.00 94 1013.7
20260507053908 73 195 0.9 1.7 0.00 0.00 0.00 94 1014.0
20260507053405 73 208 0.9 1.7 0.00 0.00 0.00 94 1014.0
20260507052904 73 213 0.9 0.9 0.00 0.00 0.00 94 1014.2
20260507052400 73 185 0.0 0.0 0.00 0.00 0.00 93 1014.1
20260507051857 73 195 0.9 0.9 0.00 0.00 0.00 93 1014.2
20260507051354 73 179 0.0 0.0 0.00 0.00 0.00 93 1014.4
20260507050851 73 208 0.9 1.7 0.00 0.00 0.00 93 1014.4